[[{"header":{"parameterUnit":"m.s-1","parameterCategory":1,"la1":30.2991,"la2":30.254,"lo1":-89.0895,"lo2":-89.0444,"dy":0.0017,"dx":0.0017,"nx":28,"ny":28,"refTime":"2024-06-30T09:00:00:Z","depth":0,"parameterNumber":2,"parameterNumberName":"U-component_of_WINDS"},"data":[0,0,0,0,0,0,0,0,0,0,0,0,0,0,0,0,0,0,0,0,0,0,0,0,0,0,0,0,0,0,0,0,0,0,0,0,0,0,0,0,0,0,0,0,0,0,0,0,0,0,0,0,0,0,0,0,0,0,2.3893,2.3895,0,2.4093,2.4096,2.4098,2.415,2.4149,2.4148,2.4146,2.4357,2.4364,2.437,0,0,0,0,0,0,0,0,0,0,0,0,0,2.3561,2.3567,2.3893,2.3895,2.3898,2.4093,2.4096,2.4098,2.415,2.4149,2.4147,2.4146,2.4355,2.4363,2.4371,0,0,0,0,0,0,0,0,0,0,0,0,0,2.3728,2.3569,2.3892,2.3947,2.3954,2.4092,2.4096,2.4099,2.4151,2.4149,2.4147,2.4145,2.4352,2.4362,2.4372,2.4472,0,0,2.4403,2.4407,0,0,0,0,0,0,0,0,2.3718,2.374,2.3936,2.3943,2.3951,2.4095,2.4056,2.4224,2.4151,2.4076,2.4146,2.4144,2.4272,2.4288,2.433,2.4482,2.4491,2.4404,2.441,2.4414,2.4417,0,0,0,0,0,0,0,2.3707,2.3732,2.3972,2.3939,2.3948,2.3964,2.3985,2.4088,2.4182,2.4082,2.4087,2.4109,2.4275,2.432,2.4335,2.4494,2.4404,2.4413,2.4419,2.4423,2.4739,2.4741,0,0,0,0,0,0,2.3685,2.3722,2.3966,2.3978,2.3828,2.3971,2.3995,2.4051,2.4181,2.4199,2.4111,2.4111,2.4304,2.4323,2.4343,2.4469,2.4414,2.4424,2.443,2.4737,2.474,2.4742,0,0,0,0,0,0,2.3678,2.3706,2.3958,2.3851,2.3884,2.3979,2.4041,2.4056,2.41,2.4202,2.422,2.4139,2.4303,2.4329,2.4439,2.4477,2.4428,2.4438,2.4734,2.4738,2.4741,2.472,0,0,0,0,0,0,2.3668,2.3703,2.374,2.3852,2.389,2.4049,2.4043,2.4061,2.4117,2.4119,2.4233,2.425,2.4304,2.4424,2.4449,2.449,2.4445,2.4731,2.4736,2.474,2.4718,2.4722,2.4726,0,0,0,0,0,2.3656,2.3727,2.3742,2.3771,2.3938,2.405,2.4073,2.4131,2.412,2.4159,2.4225,2.4247,2.4469,2.4435,2.4464,2.4508,2.4729,2.4734,2.4739,2.4716,2.4721,2.4726,0,0,0,0,0,0,2.3619,2.3743,2.376,2.387,2.3949,2.4059,2.411,2.4135,2.422,2.4219,2.4289,2.4315,2.442,2.4476,2.4436,2.4612,2.4599,2.4611,2.4571,2.4578,2.4582,2.4566,2.4454,0,0,0,0,0,2.3624,2.3703,2.3808,2.3894,2.3933,2.4015,2.4066,2.4104,2.419,2.4224,2.4298,2.4382,2.4471,2.4528,2.4615,2.4727,2.4753,2.4772,2.4776,2.4779,2.4787,2.4852,2.4861,2.4759,2.4759,2.4759,0,0,2.3634,2.3712,2.3758,2.3889,2.3955,2.4037,2.4043,2.4129,2.4191,2.4238,2.4346,2.4403,2.4502,2.4614,2.4667,2.4663,2.4822,2.4786,2.4787,2.4794,2.4858,2.4867,2.4876,2.4763,2.4762,2.4761,0,0,2.3695,2.3761,2.3841,2.3907,2.4006,2.406,2.4079,2.4186,2.4226,2.4335,2.4372,2.4449,2.46,2.4668,2.4723,2.4812,2.4836,2.4839,2.4861,2.4922,2.493,2.4938,2.4969,2.498,2.4848,2.4848,2.4848,0,2.3696,2.3819,2.3879,2.3964,2.4021,2.4066,2.4148,2.421,2.4333,2.4373,2.4367,2.4558,2.4628,2.4756,2.4778,2.4821,2.4846,2.4825,2.4924,2.4932,2.494,2.4971,2.4983,2.4847,2.4847,2.4847,2.4847,0,2.3815,2.39,2.3953,2.4069,2.4133,2.4216,2.4291,2.4348,2.4382,2.4437,2.4549,2.4634,2.474,2.4774,2.4808,2.4908,2.4903,2.491,2.4898,2.4948,2.4978,2.4991,2.4847,2.4847,2.4847,2.4847,0,0,2.3856,2.4005,2.4024,2.4077,2.4191,2.4259,2.4346,2.4448,2.4496,2.4581,2.4655,2.4783,2.4791,2.4853,2.4895,2.495,2.5015,2.4951,2.4954,2.4959,2.5131,2.5123,2.5136,2.5032,2.5034,2.5036,2.5122,0,2.393,2.4083,2.4141,2.4267,2.4347,2.4392,2.4468,2.4547,2.4602,2.468,2.4742,2.483,2.4833,2.4871,2.4927,2.4994,2.505,2.499,2.5103,2.5106,2.5075,2.5152,2.5145,2.5221,2.5134,2.5137,2.5138,0,2.4036,2.412,2.4253,2.4359,2.4395,2.4461,2.4559,2.4633,2.4725,2.4761,2.4831,2.4871,2.4965,2.4948,2.508,2.5038,2.5088,2.5129,2.5133,2.5145,2.5124,2.5165,2.5247,2.5258,2.5157,2.5156,2.5154,0,2.4051,2.4199,2.4298,2.4343,2.4468,2.4513,2.4568,2.4658,2.4716,2.4803,2.4842,2.494,2.4993,2.5069,2.5134,2.5116,2.526,2.5249,2.5294,2.5292,2.532,2.5317,2.5411,2.5355,2.5355,2.5354,2.5354,0,2.4127,2.4207,2.4306,2.4367,2.4458,2.4526,2.4615,2.4673,2.4753,2.4827,2.4874,2.4943,2.5026,2.5107,2.5159,2.526,2.5284,2.5317,2.533,2.5312,2.5308,2.5345,2.5341,2.5358,2.5357,2.5356,2.5356,0,2.4158,2.4228,2.4339,2.4449,2.4478,2.4541,2.4636,2.4698,2.4755,2.4849,2.4875,2.4966,2.5063,2.5137,2.5264,2.5299,2.5406,2.542,2.5374,2.538,2.542,2.5415,2.554,2.556,2.5491,2.5492,2.5492,0,2.4201,2.4263,2.438,2.4432,2.4486,2.457,2.4629,2.4699,2.4759,2.4869,2.4918,2.5019,2.5102,2.5256,2.5335,2.5433,2.5449,2.5486,2.5464,2.5444,2.5448,2.5443,2.545,2.5488,2.5488,2.5489,2.5489,0,2.4269,2.4301,2.4384,2.4479,2.4548,2.4627,2.4707,2.4748,2.4832,2.4898,2.4997,2.5062,2.5191,2.5291,2.5396,2.5455,2.5487,2.5496,2.5511,2.5493,2.5463,2.5479,2.5381,2.5492,2.5492,2.5491,2.5491,2.5491,2.4308,2.4365,2.4456,2.4547,2.4614,2.4688,2.4752,2.4817,2.4901,2.501,2.5047,2.515,2.5243,2.5387,2.5448,2.553,2.553,2.5553,2.5558,2.5562,2.556,2.5451,2.555,2.555,2.555,2.555,2.555,0,2.4377,2.4438,2.4521,2.4631,2.4703,2.4726,2.4816,2.4875,2.4964,2.5047,2.5129,2.5244,2.5341,2.5428,2.5529,2.5579,2.5596,2.5603,2.5599,2.5613,2.5555,2.5531,2.5588,2.5588,2.5587,2.5587,2.5587,2.5587,2.4422,2.4521,2.4564,2.4697,2.4759,2.4858,2.4907,2.4977,2.5043,2.5169,2.5249,2.5305,2.539,2.5498,2.5589,2.5613,2.5647,2.5651,2.5677,2.5621,2.5617,2.5612,2.559,2.5658,2.5658,2.5729,2.5729,2.573]},{"header":{"parameterUnit":"m.s-1","parameterCategory":1,"la1":30.2991,"la2":30.254,"lo1":-89.0895,"lo2":-89.0444,"dy":0.0017,"dx":0.0017,"nx":28,"ny":28,"refTime":"2024-06-30T09:00:00:Z","depth":0,"parameterNumber":3,"parameterNumberName":"V-component_of_WINDS"},"data":[0,0,0,0,0,0,0,0,0,0,0,0,0,0,0,0,0,0,0,0,0,0,0,0,0,0,0,0,0,0,0,0,0,0,0,0,0,0,0,0,0,0,0,0,0,0,0,0,0,0,0,0,0,0,0,0,0,0,3.8953,3.8953,0,3.8984,3.8984,3.8985,3.8961,3.896,3.8959,3.8958,3.8986,3.8988,3.899,0,0,0,0,0,0,0,0,0,0,0,0,0,3.8867,3.8868,3.8953,3.8953,3.8953,3.8984,3.8984,3.8985,3.8961,3.896,3.8959,3.8958,3.8986,3.8988,3.899,0,0,0,0,0,0,0,0,0,0,0,0,0,3.8902,3.8869,3.8952,3.8945,3.8945,3.8984,3.8984,3.8985,3.8962,3.896,3.8958,3.8957,3.8985,3.8987,3.899,3.9036,0,0,3.8998,3.8999,0,0,0,0,0,0,0,0,3.89,3.8905,3.8946,3.8946,3.8946,3.8967,3.8964,3.9002,3.8962,3.8955,3.8958,3.8956,3.8981,3.8984,3.8993,3.9037,3.9039,3.8998,3.8999,3.9001,3.9001,0,0,0,0,0,0,0,3.8897,3.8903,3.8965,3.8947,3.8946,3.8939,3.8942,3.8971,3.8976,3.8956,3.8954,3.8958,3.898,3.899,3.8993,3.9039,3.8998,3.9,3.9002,3.9003,3.912,3.9121,0,0,0,0,0,0,3.8896,3.8901,3.8964,3.8966,3.8919,3.8942,3.8945,3.8962,3.8976,3.8976,3.896,3.8957,3.8987,3.899,3.8994,3.9047,3.9001,3.9003,3.9004,3.9118,3.912,3.9122,0,0,0,0,0,0,3.8894,3.8902,3.8963,3.8933,3.894,3.8945,3.8963,3.8963,3.8973,3.8979,3.8979,3.8969,3.8986,3.899,3.9025,3.9047,3.9004,3.9006,3.9116,3.9119,3.9121,3.9153,0,0,0,0,0,0,3.8892,3.8902,3.8921,3.8934,3.8942,3.8995,3.8965,3.8965,3.8978,3.8975,3.8988,3.8988,3.8985,3.9022,3.9028,3.905,3.9008,3.9114,3.9117,3.912,3.915,3.9157,3.9162,0,0,0,0,0,3.8889,3.8928,3.8922,3.8929,3.8966,3.8996,3.9001,3.8997,3.898,3.8998,3.9001,3.8988,3.9044,3.9025,3.9032,3.9055,3.9113,3.9116,3.912,3.9148,3.9155,3.9162,0,0,0,0,0,0,3.8917,3.893,3.8923,3.8968,3.8981,3.8992,3.9015,3.9006,3.9024,3.902,3.9013,3.9016,3.9052,3.9058,3.9036,3.9099,3.9075,3.908,3.9094,3.9102,3.9107,3.9104,3.901,0,0,0,0,0,3.8928,3.8953,3.8963,3.9002,3.9009,3.9011,3.9024,3.902,3.9033,3.9038,3.9044,3.9056,3.9076,3.9089,3.9108,3.9151,3.9152,3.917,3.9176,3.9181,3.9185,3.9205,3.9213,3.9133,3.9133,3.9133,0,0,3.8952,3.8962,3.8978,3.9007,3.9017,3.9041,3.9016,3.9043,3.906,3.9042,3.9075,3.9079,3.9092,3.913,3.9148,3.9136,3.9207,3.9186,3.9189,3.9191,3.921,3.9217,3.9224,3.9136,3.9135,3.9135,0,0,3.9007,3.9019,3.9051,3.9061,3.9076,3.9077,3.9085,3.9097,3.91,3.9133,3.9119,3.9138,3.9174,3.9183,3.9192,3.9248,3.9236,3.9254,3.9284,3.9304,3.931,3.9316,3.9333,3.934,3.9259,3.9259,3.9259,0,3.9034,3.9071,3.9068,3.9095,3.9107,3.9093,3.9124,3.9134,3.9154,3.9162,3.9149,3.9191,3.9199,3.9238,3.9251,3.926,3.9267,3.9252,3.931,3.9315,3.932,3.9337,3.9344,3.9261,3.9261,3.926,3.926,0,3.9102,3.9128,3.9151,3.9172,3.9186,3.9216,3.9215,3.923,3.9224,3.9226,3.9258,3.9267,3.9286,3.9295,3.929,3.9333,3.9325,3.9311,3.9287,3.933,3.9345,3.9352,3.9264,3.9263,3.9262,3.9262,0,0,3.9175,3.9193,3.9201,3.9209,3.9224,3.9243,3.927,3.929,3.9302,3.9316,3.9337,3.9367,3.9353,3.9364,3.9359,3.9377,3.9418,3.9361,3.9361,3.9369,3.9462,3.9471,3.9479,3.941,3.9411,3.9412,3.946,0,3.9228,3.9277,3.9274,3.9319,3.9341,3.9327,3.935,3.9361,3.9363,3.9381,3.9382,3.9402,3.9385,3.939,3.9408,3.9409,3.9436,3.9406,3.9427,3.9428,3.9423,3.9487,3.9497,3.9542,3.9467,3.9468,3.9468,0,3.9298,3.9314,3.9362,3.9371,3.938,3.9402,3.9418,3.9436,3.9447,3.9447,3.9458,3.945,3.9475,3.9451,3.9484,3.9464,3.9472,3.9474,3.9476,3.9476,3.945,3.9487,3.9556,3.9562,3.9478,3.9477,3.9477,0,3.9343,3.9377,3.9409,3.9417,3.943,3.9444,3.945,3.946,3.9471,3.9485,3.9492,3.9509,3.9517,3.9529,3.9525,3.9509,3.9558,3.9535,3.9557,3.9557,3.9567,3.9566,3.9636,3.9576,3.9576,3.9575,3.9575,0,3.9402,3.943,3.9429,3.9449,3.948,3.9475,3.9505,3.9509,3.9518,3.9536,3.9525,3.9542,3.9537,3.9553,3.955,3.9576,3.9581,3.958,3.9578,3.958,3.958,3.9584,3.958,3.9577,3.9577,3.9577,3.9576,0,3.9457,3.9458,3.9491,3.95,3.9503,3.9525,3.9532,3.9549,3.955,3.9573,3.9579,3.9579,3.9598,3.9595,3.9616,3.9614,3.9646,3.9642,3.9643,3.9641,3.9662,3.9659,3.9736,3.9745,3.9681,3.9681,3.9682,0,3.9493,3.9515,3.9526,3.9538,3.9545,3.9565,3.9576,3.9572,3.9584,3.9597,3.9612,3.963,3.9643,3.9673,3.9675,3.969,3.9684,3.971,3.9686,3.9687,3.9682,3.968,3.9681,3.9714,3.9715,3.9716,3.9716,0,3.9557,3.9556,3.9573,3.959,3.9604,3.9617,3.9629,3.9639,3.9636,3.9649,3.9668,3.9679,3.97,3.9717,3.9731,3.9735,3.9724,3.9724,3.9729,3.973,3.9729,3.9727,3.9653,3.9722,3.9721,3.9721,3.972,3.972,3.9602,3.962,3.963,3.9649,3.9657,3.9668,3.9684,3.9687,3.9703,3.972,3.9717,3.9737,3.9746,3.9763,3.9769,3.9784,3.9774,3.9783,3.9785,3.9786,3.9788,3.9728,3.9787,3.9787,3.9787,3.9787,3.9786,0,3.9663,3.9669,3.9687,3.9703,3.9717,3.9708,3.972,3.9732,3.975,3.976,3.9773,3.9794,3.981,3.9813,3.9827,3.9839,3.9834,3.9842,3.9841,3.9841,3.9797,3.979,3.9846,3.9846,3.9846,3.9846,3.9846,3.9846,3.9696,3.9725,3.9725,3.9756,3.9762,3.9783,3.979,3.9799,3.9806,3.983,3.9843,3.9845,3.9851,3.9866,3.9879,3.988,3.9884,3.9894,3.9892,3.9851,3.9845,3.9839,3.9832,3.9896,3.9896,3.9935,3.9936,3.9936]}]]